Hourly Data Report for August 24, 2002

SHERBROOKE A
QUEBEC

45°26'00.000" N
71°41'00.000" W
241.40 m
7028124
71610
YSC

Download Data

Hourly Data (August 2002)
Hourly Data Report for August 24, 2002
TIME
LST
Temp Definition
°C
Dew Point Definition
°C
Rel Hum Definition
%
Precip. Amount Definition
mm

Wind Dir Definition
10's deg

Wind Spd Definition
km/h
Visibility Definition
km
Stn Press Definition
kPa
Hmdx Definition


Wind Chill Definition


Weather Definition


00:00 9.9 9.4 97   9 6 15.0 98.69      
01:00 9.6 9.0 96   5 6 15.0 98.64      
02:00 8.6 8.1 97   7 4 15.0 98.61      
03:00 9.1 8.7 97   9 9 15.0 98.56      
04:00 7.8 7.4 97   10 6 15.0 98.56      
05:00 7.6 7.3 98   4 6 15.0 98.52      
06:00 8.7 8.3 97   5 6 15.0 98.51      
07:00 11.9 11.2 95   9 6 24.1 98.49     Mostly Cloudy
08:00 15.9 12.8 82   6 6 24.1 98.49     Mostly Cloudy
09:00 19.1 13.4 70     0 24.1 98.45     Mostly Cloudy
10:00 19.5 13.8 70   20 9 24.1 98.41     Mostly Cloudy
11:00 21.0 13.8 63   19 13 24.1 98.33     Mostly Cloudy
12:00 20.9 12.4 58   18 11 24.1 98.28     Mostly Cloudy
13:00 21.9 12.3 54   21 15 24.1 98.19     Mostly Cloudy
14:00 22.2 12.6 55   23 11 24.1 98.14 25   Mostly Cloudy
15:00 22.5 12.7 54   21 11 24.1 98.11 25   Mostly Cloudy
16:00 21.8 12.7 56   24 9 24.1 98.08     Mostly Cloudy
17:00 21.3 12.3 56   27 6 15.0 98.04      
18:00 18.9 12.8 68   22 11 15.0 98.06      
19:00 16.5 12.0 75   19 6 15.0 98.05      
20:00 15.3 11.2 77   18 6 15.0 98.08      
21:00 13.8 10.8 82   14 9 15.0 98.03      
22:00 11.4 10.1 92     0 15.0 98.00      
23:00 9.7 8.9 95   28 4 15.0 98.03      

Notes on Data Quality.

Legend

  • E = Estimated
  • M = Missing
  • NA = Not Available*
  • [empty] = Indicates an unobserved value
Date modified: